www.pogodaiklimat.ru

Погода и климат >> Архив погоды >> Бразилия >> Рио-де-Жанейро >> Макаэ


ПОГОДА в Макаэ

  • Прогноз погоды в Макаэ
  • Монитор погоды в Макаэ

АРХИВ ПОГОДЫ в Макаэ

Время (UTC), дата Ветер
(напр.,м/с)
 
Видим.   Явления Облачность Т
(С)
Тd
(С)
f
(%)
Тe
(С)
Тes
(С)
Комфортность P
(гПа)
Po
(гПа)
Тmin
(С)
Tmax
(С)
R
(мм)
R24
(мм)
S
(см)
07 12.07 С 1
{2}
н/о н/о +13.5 +11.4 87 +14 +14 1017.7 1014.7
08 12.07 СЗ 1
{2}
н/о н/о +13.7 +11.4 86 +14 +14 1017.8 1014.8
09 12.07 штиль 0
{1}
н/о н/о +12.4 +11.2 92 +12 +12 1018.5 1015.5
10 12.07 З 1
{1}
н/о н/о +13.2 +12.1 93 +14 +14 1019.3 1016.3
11 12.07 СЗ 1
{1}
н/о н/о +17.3 +13.8 80 +19 +19 1019.6 1016.7
12 12.07 СВ 1
{1}
н/о н/о +21.5 +14.5 64 +24 +24 комфорт 1020.1 1017.2
13 12.07 СВ 1
{2}
н/о н/о +24.6 +14.2 52 +27 +27 жарко 1019.8 1016.9
14 12.07 В 2
{3}
н/о н/о +25.7 +15.5 53 +29 +29 душно 1018.7 1015.8
15 12.07 В 2
{3}
н/о н/о +25.8 +16.1 55 +29 +29 душно 1017.6 1014.7
16 12.07 В 2
{4}
н/о н/о +25.7 +16.6 57 +29 +29 душно 1016.5 1013.6
17 12.07 В 2
{4}
н/о н/о +25.4 +14.2 50 +28 +28 жарко 1016.3 1013.4
18 12.07 В 2
{4}
н/о н/о +25.3 +13.1 47 +27 +27 жарко 1016.1 1013.2
19 12.07 В 2
{4}
н/о н/о +23.7 +15.5 60 +27 +27 жарко 1016.5 1013.6
20 12.07 В 2
{4}
н/о н/о +22.3 +17.0 72 +27 +27 душно 1016.9 1014.0
21 12.07 В 2
{4}
н/о н/о +21.4 +18.9 86 +26 +26 душно 1017.1 1014.2
22 12.07 СЗ 1
{3}
н/о н/о +19.8 +17.8 88 +24 +24 комфорт 1017.7 1014.8
23 12.07 С 1
{1}
н/о н/о +19.3 +17.4 89 +22 +22 комфорт 1018.2 1015.3
00 13.07 СВ 1
{1}
н/о н/о +18.5 +16.6 89 +21 +21 комфорт 1018.3 1015.4
03 13.07 СВ 1
{2}
н/о н/о +16.7 +14.5 87 +18 +18 1017.5 1014.6
04 13.07 СВ 1
{2}
н/о н/о +15.7 +13.9 89 +17 +17 1017.2 1014.2
05 13.07 СВ 1
{2}
н/о н/о +14.7 +13.1 90 +16 +16 1016.5 1013.5
06 13.07 С 1
{1}
н/о н/о +13.9 +12.8 93 +15 +15 1016.1 1013.1
07 13.07 СЗ 1
{1}
н/о н/о +13.8 +12.8 94 +15 +15 1015.8 1012.8
08 13.07 З 1
{1}
н/о н/о +12.9 +12.1 95 +14 +14 1016.0 1013.0
09 13.07 штиль 0
{1}
н/о н/о +12.3 +11.7 96 +12 +12 1016.4 1013.4
10 13.07 З 1
{1}
н/о н/о +13.5 +12.9 96 +14 +14 1017.1 1014.1
11 13.07 З 1
{1}
н/о н/о +18.1 +15.5 85 +20 +20 1017.8 1014.9
12 13.07 СЗ 1
{1}
н/о н/о +21.6 +15.8 70 +25 +25 комфорт 1018.2 1015.3
14 13.07 Ю 1
{2}
н/о н/о +26.5 +16.7 55 +30 +30 душно 1017.3 1014.4
15 13.07 Ю 1
{2}
н/о н/о +27.7 +17.0 52 +32 +32 очень
душно
1016.3 1013.5
17 13.07 Ю 1
{2}
н/о н/о +26.2 +16.7 56 +30 +30 душно 1015.0 1012.2
18 13.07 Ю 1
{2}
н/о н/о +25.8 +16.5 56 +29 +29 душно 1014.9 1012.0
20 13.07 ЮВ 1
{2}
н/о н/о +21.0 +17.4 80 +26 +26 душно 1015.6 1012.7
21 13.07 СВ 1
{1}
н/о н/о +20.0 +17.9 88 +25 +25 комфорт 1015.9 1013.0
22 13.07 СЗ 1
{1}
н/о н/о +18.3 +16.8 91 +20 +20 1016.5 1013.6
00 14.07 СЗ 1
{2}
н/о н/о +17.0 +15.7 92 +18 +18 1016.8 1013.9
01 14.07 СЗ 1
{1}
н/о н/о +17.1 +15.9 93 +19 +19 1016.7 1013.8
02 14.07 С 1
{1}
н/о н/о +16.4 +15.4 94 +18 +18 1016.4 1013.5
03 14.07 СВ 1
{1}
н/о н/о +15.2 +14.3 94 +16 +16 1016.5 1013.5
04 14.07 С 1
{1}
н/о н/о +14.9 +14.1 95 +16 +16 1015.7 1012.7
05 14.07 штиль 0
{1}
н/о н/о +15.0 +14.3 96 +15 +15 1015.4 1012.4
06 14.07 З 1
{1}
н/о н/о +14.5 +13.8 96 +16 +16 1015.1 1012.1 0.2
07 14.07 СЗ 1
{1}
н/о н/о +13.9 +13.3 96 +15 +15 1014.5 1011.5
08 14.07 Ю 1
{1}
н/о н/о +14.4 +13.8 96 +15 +15 1014.8 1011.8
09 14.07 З 1
{2}
н/о н/о +13.9 +13.3 96 +14 +14 1015.4 1012.4
10 14.07 З 1
{1}
н/о н/о +15.4 +14.8 96 +17 +17 1015.8 1012.8
11 14.07 З 1
{1}
н/о н/о +21.0 +19.0 88 +27 +27 душно 1016.2 1013.3
12 14.07 С 1
{1}
н/о н/о +24.6 +17.0 63 +28 +28 душно 1016.2 1013.3
13 14.07 СВ 1
{1}
н/о н/о +26.6 +16.4 54 +30 +30 душно 1016.0 1013.2
14 14.07 В 1
{2}
н/о н/о +27.7 +17.9 55 +32 +32 очень
душно
1015.2 1012.4
15 14.07 ЮВ 1
{2}
н/о н/о +27.6 +17.9 56 +32 +32 очень
душно
1014.3 1011.5
16 14.07 ЮВ 1
{2}
н/о н/о +27.6 +17.9 56 +32 +32 очень
душно
1013.2 1010.4
17 14.07 ЮВ 1
{2}
н/о н/о +27.1 +17.1 54 +31 +31 душно 1012.5 1009.7
18 14.07 Ю 1
{2}
н/о н/о +27.7 +17.3 53 +32 +32 очень
душно
1012.4 1009.6
19 14.07 Ю 1
{1}
н/о н/о +25.8 +18.1 62 +30 +30 душно 1012.6 1009.8
20 14.07 ЮВ 1
{1}
н/о н/о +22.0 +18.7 82 +27 +27 душно 1013.3 1010.4
21 14.07 Ю 1
{2}
н/о н/о +20.9 +19.4 91 +27 +27 душно 1013.7 1010.8
22 14.07 ЮЗ 1
{1}
н/о н/о +20.7 +19.6 93 +27 +27 душно 1014.4 1011.5
23 14.07 ЮЗ 1
{2}
н/о н/о +19.5 +18.5 94 +23 +23 комфорт 1015.1 1012.2
00 15.07 З 1
{1}
н/о н/о +18.9 +18.0 95 +22 +22 комфорт 1015.2 1012.3
01 15.07 З 1
{2}
н/о н/о +18.7 +18.0 96 +21 +21 комфорт 1015.0 1012.1
02 15.07 СВ 1
{1}
н/о н/о +17.6 +16.9 96 +19 +19 1014.8 1011.9
03 15.07 З 1
{1}
н/о н/о +17.3 +16.6 96 +19 +19 1014.2 1011.3
04 15.07 З 1
{1}
н/о н/о +16.8 +16.2 96 +18 +18 1013.8 1010.9
05 15.07 СЗ 1
{1}
н/о н/о +16.6 +16.0 96 +18 +18 1013.5 1010.6
06 15.07 штиль 0
{1}
н/о н/о +16.2 +15.6 96 +16 +16 1013.3 1010.4
08 15.07 С 1
{1}
н/о н/о +15.9 +15.4 97 +17 +17 1013.2 1010.3
09 15.07 ЮВ 1
{1}
н/о н/о +15.8 +15.2 96 +17 +17 1013.8 1010.9
10 15.07 З 1
{1}
н/о н/о +16.4 +15.9 97 +18 +18 1014.0 1011.1
11 15.07 ЮЗ 1
{4}
н/о н/о +19.0 +18.3 96 +22 +22 комфорт 1015.5 1012.6
12 15.07 ЮЗ 1
{3}
н/о н/о +23.1 +18.6 76 +29 +29 очень
душно
1016.1 1013.2
13 15.07 ЮЗ 1
{4}
н/о н/о +25.8 +17.9 62 +30 +30 душно 1016.0 1013.1
14 15.07 Ю 1
{4}
н/о н/о +26.6 +18.7 62 +32 +32 очень
душно
1015.4 1012.6 0.2
15 15.07 Ю 2
{4}
н/о н/о +26.2 +20.0 69 +32 +32 очень
душно
1014.5 1011.7
16 15.07 Ю 2
{4}
н/о н/о +26.3 +19.2 65 +32 +32 очень
душно
1013.7 1010.9
17 15.07 Ю 1
{4}
н/о н/о +26.2 +20.2 70 +32 +32 очень
душно
1013.4 1010.6
04 16.07 З 1
{1}
н/о н/о +17.8 +16.9 94 +19 +19 1013.9 1011.0
05 16.07 З 1
{1}
н/о н/о +17.2 +16.5 96 +18 +18 1013.5 1010.6
06 16.07 З 1
{1}
н/о н/о +17.0 +16.3 96 +18 +18 1013.3 1010.4
07 16.07 З 1
{1}
н/о н/о +16.8 +16.2 96 +18 +18 1013.4 1010.5
08 16.07 ЮЗ 1
{3}
н/о н/о +18.7 +18.1 96 +21 +21 комфорт 1014.0 1011.1
09 16.07 З 1
{3}
н/о н/о +19.3 +18.5 95 +23 +23 комфорт 1014.4 1011.5
10 16.07 ЮЗ 1
{3}
н/о н/о +19.1 +18.4 96 +23 +23 комфорт 1014.6 1011.7
11 16.07 С 1
{1}
н/о н/о +19.6 +18.7 95 +24 +24 комфорт 1014.8 1011.9
12 16.07 СЗ 1
{2}
н/о н/о +21.2 +19.2 88 +26 +26 душно 1015.7 1012.8
13 16.07 СВ 1
{1}
н/о н/о +22.1 +18.9 82 +27 +27 душно 1015.6 1012.7
14 16.07 ЮЗ 1
{2}
н/о н/о +25.1 +19.7 72 +31 +31 очень
душно
1015.2 1012.3
16 16.07 Ю 2
{6}
н/о н/о +24.9 +17.5 63 +29 +29 душно 1014.3 1011.4
17 16.07 ЮЗ 2
{6}
н/о н/о +24.2 +17.3 65 +28 +28 душно 1014.3 1011.4
20 16.07 ЮЗ 3
{6}
н/о н/о +18.7 +16.7 88 +20 +20 1017.8 1014.9
01 17.07 ЮЗ 2
{5}
н/о н/о +17.6 +13.7 78 +18 +18 1021.6 1018.6
02 17.07 ЮЗ 3
{7}
н/о н/о +17.3 +13.2 77 +17 +17 1021.6 1018.6
03 17.07 ЮЗ 3
{6}
н/о н/о +17.0 +12.6 75 +17 +17 1021.7 1018.7
04 17.07 ЮЗ 3
{6}
н/о н/о +16.8 +12.2 74 +17 +17 1021.5 1018.5
05 17.07 ЮЗ 2
{6}
н/о н/о +17.0 +11.1 68 +17 +17 1021.7 1018.7
06 17.07 ЮЗ 2
{6}
н/о н/о +17.6 +10.2 62 +18 +18 1021.5 1018.5
07 17.07 ЮЗ 2
{6}
н/о н/о +16.3 +10.5 69 +16 +16 1021.7 1018.7
08 17.07 ЮЗ 2
{5}
н/о н/о +16.7 +10.1 65 +17 +17 1021.8 1018.8
09 17.07 ЮЗ 2
{5}
н/о н/о +16.3 +10.4 68 +16 +16 1022.4 1019.4
10 17.07 ЮЗ 1
{6}
н/о н/о +17.0 +11.4 70 +18 +18 1023.4 1020.4
11 17.07 ЮЗ 2
{5}
н/о н/о +19.1 +11.9 63 +21 +21 комфорт 1024.1 1021.2
12 17.07 ЮЗ 2
{5}
н/о н/о +21.7 +13.3 59 +24 +24 комфорт 1024.7 1021.8
13 17.07 ЮЗ 2
{5}
н/о н/о +21.2 +13.8 63 +24 +24 комфорт 1025.1 1022.2
16 17.07 ЮЗ 1
{4}
н/о н/о +22.2 +14.2 60 +25 +25 комфорт 1024.2 1021.3
17 17.07 ЮЗ 1
{3}
н/о н/о +21.1 +14.0 64 +24 +24 комфорт 1024.2 1021.3
18 17.07 ЮЗ 1
{3}
н/о н/о +21.0 +14.0 64 +25 +25 комфорт 1024.5 1021.6
19 17.07 Ю 1
{3}
н/о н/о +21.1 +14.4 66 +24 +24 комфорт 1024.5 1021.6
21 17.07 ЮЗ 1
{3}
н/о н/о +18.0 +14.4 79 +19 +19 1025.5 1022.5
22 17.07 ЮЗ 1
{3}
н/о н/о +17.9 +14.2 79 +19 +19 1026.1 1023.1
23 17.07 ЮЗ 1
{3}
н/о н/о +17.1 +14.4 84 +19 +19 1026.4 1023.4
00 18.07 З 1
{3}
н/о н/о +16.3 +15.4 94 +18 +18 1027.0 1024.0 6
01 18.07 З 1
{2}
н/о н/о +16.2 +15.4 95 +17 +17 1027.2 1024.2
02 18.07 СЗ 1
{2}
н/о н/о +16.2 +15.4 95 +18 +18 1027.1 1024.1
03 18.07 СЗ 1
{2}
н/о н/о +16.0 +15.2 95 +17 +17 1026.7 1023.7
04 18.07 ЮЗ 1
{3}
н/о н/о +15.9 +15.2 96 +17 +17 1026.7 1023.7
06 18.07 СЗ 1
{2}
н/о н/о +15.8 +15.1 96 +16 +16 1026.0 1023.0 0.4
07 18.07 СЗ 1
{2}
н/о н/о +15.7 +15.0 96 +16 +16 1026.1 1023.1
08 18.07 ЮЗ 1
{2}
н/о н/о +15.7 +14.9 95 +17 +17 1026.3 1023.3
09 18.07 ЮВ 1
{2}
н/о н/о +15.5 +14.8 96 +17 +17 1027.2 1024.2 4
10 18.07 З 1
{2}
н/о н/о +15.7 +15.0 96 +17 +17 1027.5 1024.5 0.2
12 18.07 С 1
{2}
н/о н/о +19.3 +16.6 84 +22 +22 комфорт 1028.8 1025.8
13 18.07 СЗ 1
{3}
н/о н/о +20.5 +15.5 73 +24 +24 комфорт 1028.7 1025.8
14 18.07 ЮВ 1
{3}
н/о н/о +18.9 +15.7 82 +21 +21 комфорт 1028.5 1025.5
15 18.07 В 1
{2}
н/о н/о +20.8 +14.1 65 +25 +25 комфорт 1027.7 1024.8
16 18.07 СВ 1
{2}
н/о н/о +21.6 +12.6 57 +24 +24 комфорт 1027.0 1024.1
17 18.07 В 1
{2}
н/о н/о +21.1 +12.8 59 +23 +23 комфорт 1026.6 1023.7
18 18.07 В 1
{2}
н/о н/о +21.6 +13.5 60 +24 +24 комфорт 1026.8 1023.9
19 18.07 В 1
{2}
н/о н/о +20.7 +13.0 61 +25 +25 комфорт 1026.6 1023.7
20 18.07 В 1
{1}
н/о н/о +18.7 +13.9 74 +21 +21 комфорт 1027.1 1024.1
21 18.07 СВ 1
{3}
н/о н/о +19.0 +12.9 68 +21 +21 комфорт 1027.4 1024.4
22 18.07 З 1
{2}
н/о н/о +17.4 +14.8 85 +19 +19 1027.8 1024.8
23 18.07 З 1
{1}
н/о н/о +16.3 +14.5 89 +18 +18 1028.2 1025.2
00 19.07 СЗ 1
{1}
н/о н/о +15.2 +14.0 93 +16 +16 1028.4 1025.4
01 19.07 СЗ 1
{1}
н/о н/о +14.8 +13.9 94 +16 +16 1028.4 1025.4
02 19.07 СЗ 1
{1}
н/о н/о +14.4 +13.7 96 +15 +15 1028.1 1025.1
03 19.07 С 1
{1}
н/о н/о +14.2 +13.5 96 +15 +15 1027.9 1024.9
05 19.07 СВ 1
{2}
н/о н/о +14.6 +13.9 96 +15 +15 1027.2 1024.2
07 19.07 СЗ 1
{1}
н/о н/о +14.8 +13.6 93 +16 +16 1026.8 1023.8

 

Местоположение метеостанции Макаэ (Рио-де-Жанейро, Бразилия): широта -22.38 долгота -41.81 высота над уровнем моря 34 м.

В архиве по умолчанию представлена погода в Макаэ за последнюю неделю. Архивные данные за месяц целиком и за предыдущие месяцы, начиная с января 2011 года, Вы можете получить, выбрав интересующий диапазон дат из раскрывающегося списка и нажав кнопку "Ввод!".


*Определитесь, кто Вы:
робот инопланетянин человек

Внимание! Время в таблицах - всемирное. Для получения местного времени необходимо прибавить поправку, которая равна -3 ч.

Смотрите также архив погоды в соседних городах и на ближайших метеорологических станциях:

Погода в Кордейру (Рио-де-Жанейро, Бразилия) (69 км)
Погода в Силва-Жардине (Рио-де-Жанейро, Бразилия) (70 км)
Погода в Арраял-ду-Кабу (Рио-де-Жанейро, Бразилия) (70 км)
Погода в Кампусе (Рио-де-Жанейро, Бразилия) (86 км)
Погода в Сан-Томе (Рио-де-Жанейро, Бразилия) (87 км)
Погода в Кампусе (Рио-де-Жанейро, Бразилия) (87 км)
Погода в Нова-Фрибургу (Рио-де-Жанейро, Бразилия) (90 км)
Погода в Камбуси (Рио-де-Жанейро, Бразилия) (90 км)
Погода в Сакуареме (Рио-де-Жанейро, Бразилия) (99 км)
Погода в Терезополисе (Рио-де-Жанейро, Бразилия) (122 км)

Пояснения к столбцам:

Ветер - указаны скорость ветра в м/с - средняя за 10 мин, порывы в срок и между сроками (в фигурных скобках) и направление, откуда дует ветер: С - северный, СВ - северо-восточный, В - восточный, ЮВ - юго-восточный, Ю - южный, ЮЗ - юго-западный, З - западный, СЗ - северо-западный.
Видимость - горизонтальная дальность видимости в метрах или километрах. При видимости от 1 до 10 км при отсутствии осадков обычно наблюдается дымка, при ухудшении видимости до 1 км и менее - туман. В сухую погоду видимость может ухудшаться дымом, пылью или мглою.
Явления - указаны атмосферные явления, наблюдавшиеся в срок или в последний час перед сроком; фигурными скобками обозначены явления, наблюдавшиеся между сроками (за 1-3 часа до срока); квадратными скобками обозначены град или гололедные отложения с указанием их диаметра в мм.
Облачность - указаны через наклонную черту общая и нижняя облачность в баллах и высота нижней границы облаков в метрах; квадратными скобками обозначены формы облаков: Ci - перистые, Cs - перисто-слоистые, Cc - перисто-кучевые, Ac - высококучевые, As - высокослоистые, Sc - слоисто-кучевые, Ns - слоисто-дождевые, Cu - кучевые, Cb - кучево-дождевые. Подробнее классификацию облаков см. в Атласе облаков (PDF).
T - Температура воздуха - температура, измеренная на высоте 2 м над землей.
Td - Температура точки росы - температура, при понижении до которой содержащийся в воздухе водяной пар достигнет насыщения.
f - Относительная влажность воздуха - влажноcть воздуха, измеренная на высоте 2 м над землей.
Te - Эффективная температура - температура, которую ощущает одетый по сезону человек в тени. Характеристика душности погоды. При расчете учитывается влияние влажности воздуха и скорости ветра на теплоощущения человека.
Tes - Эффективная температура на солнце - температура, которую ощущает человек, с поправкой на солнечный нагрев. Характеристика знойности погоды. Зависит от высоты солнца над горизонтом, облачности и скорости ветра. Ночью, в пасмурную погоду, а также при ветре 12 м/с и более поправка равна нулю.
P - Атмосферное давление - приведенное к уровню моря атмосферное давление.
Po - Атмосферное давление - измеренное на уровне метеостанции атмосферное давление.
Tmin - Минимальная температура - минимум температуры воздуха на высоте 2 м над землей.
Tmax - Максимальная температура - максимум температуры воздуха на высоте 2 м над землей.
R - Количество осадков - Количество выпавших осадков за период времени, мм. При наведении курсора мыши на число - период времени, за который выпало указанное количество осадков.
R24 - Количество осадков - Количество выпавших осадков за 24 часа, мм.
S - Снежный покров - Высота снежного покрова, см. При наведении курсора мыши на число - состояние снежного покрова и степень покрытия местности в баллах.